Time,TemperatureF,DewpointF,PressureIn,WindDirection,WindDirectionDegrees,WindSpeedMPH,WindSpeedGustMPH,Humidity,HourlyPrecipIn,Conditions,Clouds,dailyrainin,SoftwareType,DateUTC
2013-10-12 00:01:00,43.6,28.5,30.14,NNE,20,0.0,0.0,55,0.00,CLR,,0.00,WeatherDisplay:10.37,2013-10-12 04:01:00,
2013-10-12 00:02:00,43.5,28.4,30.14,NNE,20,0.0,0.0,55,0.00,CLR,,0.00,WeatherDisplay:10.37,2013-10-12 04:02:00,
2013-10-12 00:07:00,43.3,28.2,30.14,NNE,20,0.0,0.0,55,0.00,CLR,,0.00,WeatherDisplay:10.37,2013-10-12 04:07:00,
2013-10-12 00:12:00,43.2,28.1,30.14,NNE,20,0.0,0.0,55,0.00,CLR,,0.00,WeatherDisplay:10.37,2013-10-12 04:12:00,
2013-10-12 00:17:00,42.9,27.8,30.14,NNE,20,0.0,0.0,55,0.00,CLR,,0.00,WeatherDisplay:10.37,2013-10-12 04:17:00,
2013-10-12 00:22:00,42.7,27.6,30.14,NNE,20,0.0,0.0,55,0.00,CLR,,0.00,WeatherDisplay:10.37,2013-10-12 04:22:00,
2013-10-12 00:27:00,42.6,27.5,30.14,NNE,20,0.0,0.0,55,0.00,CLR,,0.00,WeatherDisplay:10.37,2013-10-12 04:27:00,
2013-10-12 00:32:00,42.6,27.5,30.14,NNE,20,0.0,0.0,55,0.00,CLR,,0.00,WeatherDisplay:10.37,2013-10-12 04:32:00,
2013-10-12 00:37:00,42.4,27.4,30.14,NNE,20,0.0,0.0,55,0.00,CLR,,0.00,WeatherDisplay:10.37,2013-10-12 04:37:00,
2013-10-12 00:42:00,42.5,27.5,30.14,NNE,20,0.0,0.0,55,0.00,CLR,,0.00,WeatherDisplay:10.37,2013-10-12 04:42:00,
2013-10-12 00:47:00,42.6,27.5,30.14,NNE,20,0.0,0.0,55,0.00,CLR,,0.00,WeatherDisplay:10.37,2013-10-12 04:47:00,
2013-10-12 00:52:00,42.6,27.5,30.14,NNE,20,0.0,0.0,55,0.00,CLR,,0.00,WeatherDisplay:10.37,2013-10-12 04:52:00,
2013-10-12 00:57:00,42.3,27.3,30.14,NNE,20,0.0,0.0,55,0.00,CLR,,0.00,WeatherDisplay:10.37,2013-10-12 04:57:00,
2013-10-12 01:02:00,42.2,27.2,30.14,NNE,20,0.0,0.0,55,0.00,CLR,,0.00,WeatherDisplay:10.37,2013-10-12 05:02:00,
2013-10-12 01:07:00,42.4,27.4,30.14,NNE,20,0.0,0.0,55,0.00,CLR,,0.00,WeatherDisplay:10.37,2013-10-12 05:07:00,
2013-10-12 01:12:00,42.3,27.3,30.14,NNE,20,0.0,0.0,55,0.00,CLR,,0.00,WeatherDisplay:10.37,2013-10-12 05:12:00,
2013-10-12 01:17:00,42.3,27.3,30.14,NNE,20,0.0,0.0,55,0.00,CLR,,0.00,WeatherDisplay:10.37,2013-10-12 05:17:00,
2013-10-12 01:22:00,42.0,27.0,30.14,NNE,20,0.0,0.0,55,0.00,CLR,,0.00,WeatherDisplay:10.37,2013-10-12 05:22:00,
2013-10-12 01:27:00,42.1,27.1,30.14,NNE,20,0.0,0.0,55,0.00,CLR,,0.00,WeatherDisplay:10.37,2013-10-12 05:27:00,
2013-10-12 01:32:00,41.8,26.8,30.14,NNE,20,0.0,0.0,55,0.00,CLR,,0.00,WeatherDisplay:10.37,2013-10-12 05:32:00,
2013-10-12 01:37:00,41.7,26.7,30.14,NNE,20,0.0,0.0,55,0.00,CLR,,0.00,WeatherDisplay:10.37,2013-10-12 05:37:00,
2013-10-12 01:42:00,41.7,26.7,30.14,NNE,20,0.0,0.0,55,0.00,CLR,,0.00,WeatherDisplay:10.37,2013-10-12 05:42:00,
2013-10-12 01:47:00,41.6,26.6,30.14,NNE,20,0.0,0.0,55,0.00,CLR,,0.00,WeatherDisplay:10.37,2013-10-12 05:47:00,
2013-10-12 01:52:00,41.6,26.6,30.14,NNE,20,0.0,0.0,55,0.00,CLR,,0.00,WeatherDisplay:10.37,2013-10-12 05:52:00,
2013-10-12 01:57:00,41.5,26.5,30.14,NNE,20,0.0,0.0,55,0.00,CLR,,0.00,WeatherDisplay:10.37,2013-10-12 05:57:00,
2013-10-12 02:02:00,41.5,26.5,30.14,NNE,20,0.0,0.0,55,0.00,CLR,,0.00,WeatherDisplay:10.37,2013-10-12 06:02:00,
2013-10-12 02:07:00,41.3,26.3,30.14,NNE,20,0.0,0.0,55,0.00,CLR,,0.00,WeatherDisplay:10.37,2013-10-12 06:07:00,
2013-10-12 02:12:00,41.2,26.2,30.14,NNE,20,0.0,0.0,55,0.00,CLR,,0.00,WeatherDisplay:10.37,2013-10-12 06:12:00,
2013-10-12 02:17:00,41.1,26.1,30.14,NNE,20,0.0,0.0,55,0.00,CLR,,0.00,WeatherDisplay:10.37,2013-10-12 06:17:00,
2013-10-12 02:22:00,41.3,26.3,30.14,NNE,20,0.0,0.0,55,0.00,CLR,,0.00,WeatherDisplay:10.37,2013-10-12 06:22:00,
2013-10-12 02:27:00,41.2,26.2,30.14,NNE,20,0.0,0.0,55,0.00,CLR,,0.00,WeatherDisplay:10.37,2013-10-12 06:27:00,
2013-10-12 02:32:00,41.2,26.2,30.14,NNE,20,0.0,0.0,55,0.00,CLR,,0.00,WeatherDisplay:10.37,2013-10-12 06:32:00,
2013-10-12 02:37:00,41.0,26.1,30.14,NNE,20,0.0,0.0,55,0.00,CLR,,0.00,WeatherDisplay:10.37,2013-10-12 06:37:00,
2013-10-12 02:42:00,41.0,41.0,30.20,NNE,20,0.0,0.0,100,0.00,CLR,,0.00,WeatherDisplay:10.37,2013-10-12 06:42:00,
2013-10-12 02:47:00,40.9,40.9,30.20,NNE,20,0.0,0.0,100,0.00,CLR,,0.00,WeatherDisplay:10.37,2013-10-12 06:47:00,
2013-10-12 02:52:00,41.0,41.0,30.20,NNE,20,0.0,0.0,100,0.00,CLR,,0.00,WeatherDisplay:10.37,2013-10-12 06:52:00,
2013-10-12 02:58:00,41.2,41.2,30.20,NNE,20,0.0,0.0,100,0.00,CLR,,0.00,WeatherDisplay:10.37,2013-10-12 06:58:00,
2013-10-12 03:03:00,41.2,39.9,30.20,NNE,20,0.0,0.0,95,0.00,CLR,,0.00,WeatherDisplay:10.37,2013-10-12 07:03:00,
2013-10-12 03:08:00,41.3,40.0,30.20,NNE,20,0.0,0.0,95,0.00,CLR,,0.00,WeatherDisplay:10.37,2013-10-12 07:08:00,
2013-10-12 03:13:00,41.2,39.9,30.20,NNE,20,0.0,0.0,95,0.00,CLR,,0.00,WeatherDisplay:10.37,2013-10-12 07:13:00,
2013-10-12 03:18:00,41.0,39.7,30.20,NNE,20,0.0,0.0,95,0.00,CLR,,0.00,WeatherDisplay:10.37,2013-10-12 07:18:00,
2013-10-12 03:23:00,40.8,39.5,30.20,NNE,20,0.0,0.0,95,0.00,CLR,,0.00,WeatherDisplay:10.37,2013-10-12 07:23:00,
2013-10-12 03:28:00,40.7,39.4,30.20,NNE,20,0.0,0.0,95,0.00,CLR,,0.00,WeatherDisplay:10.37,2013-10-12 07:28:00,
2013-10-12 03:33:00,40.5,39.2,30.20,NNE,20,0.0,0.0,95,0.00,CLR,,0.00,WeatherDisplay:10.37,2013-10-12 07:33:00,
2013-10-12 03:38:00,40.5,39.2,30.20,NNE,20,0.0,0.0,95,0.00,CLR,,0.00,WeatherDisplay:10.37,2013-10-12 07:38:00,
2013-10-12 03:43:00,40.5,39.2,30.20,NNE,20,0.0,0.0,95,0.00,CLR,,0.00,WeatherDisplay:10.37,2013-10-12 07:43:00,
2013-10-12 03:48:00,40.6,39.3,30.20,NNE,20,0.0,0.0,95,0.00,CLR,,0.00,WeatherDisplay:10.37,2013-10-12 07:48:00,
2013-10-12 03:53:00,40.8,39.5,30.20,NNE,20,0.0,0.0,95,0.00,CLR,,0.00,WeatherDisplay:10.37,2013-10-12 07:53:00,
2013-10-12 03:58:00,40.6,39.3,30.20,NNE,20,0.0,0.0,95,0.00,CLR,,0.00,WeatherDisplay:10.37,2013-10-12 07:58:00,
2013-10-12 04:03:00,40.7,39.4,30.22,NNE,20,0.0,0.0,95,0.00,CLR,,0.00,WeatherDisplay:10.37,2013-10-12 08:03:00,
2013-10-12 04:08:00,40.5,39.2,30.22,NNE,20,0.0,0.0,95,0.00,CLR,,0.00,WeatherDisplay:10.37,2013-10-12 08:08:00,
2013-10-12 04:13:00,40.5,39.2,30.22,NNE,20,0.0,0.0,95,0.00,CLR,,0.00,WeatherDisplay:10.37,2013-10-12 08:13:00,
2013-10-12 04:18:00,40.5,39.2,30.22,NNE,20,0.0,0.0,95,0.00,CLR,,0.00,WeatherDisplay:10.37,2013-10-12 08:18:00,
2013-10-12 04:23:00,40.2,38.9,30.22,NNE,20,0.0,0.0,95,0.00,CLR,,0.00,WeatherDisplay:10.37,2013-10-12 08:23:00,
2013-10-12 04:28:00,40.5,39.2,30.22,NNE,20,0.0,0.0,95,0.00,CLR,,0.00,WeatherDisplay:10.37,2013-10-12 08:28:00,
2013-10-12 04:33:00,40.7,39.4,30.22,NNE,20,0.0,0.0,95,0.00,CLR,,0.00,WeatherDisplay:10.37,2013-10-12 08:33:00,
2013-10-12 04:38:00,40.7,39.4,30.22,NNE,20,0.0,0.0,95,0.00,CLR,,0.00,WeatherDisplay:10.37,2013-10-12 08:38:00,
2013-10-12 04:43:00,40.9,39.6,30.22,NNE,20,0.0,0.0,95,0.00,CLR,,0.00,WeatherDisplay:10.37,2013-10-12 08:43:00,
2013-10-12 04:48:00,40.6,39.3,30.22,NNE,20,0.0,0.0,95,0.00,CLR,,0.00,WeatherDisplay:10.37,2013-10-12 08:48:00,
2013-10-12 04:53:00,40.5,39.2,30.22,NNE,20,0.0,0.0,95,0.00,CLR,,0.00,WeatherDisplay:10.37,2013-10-12 08:53:00,
2013-10-12 04:58:00,40.4,39.1,30.22,NNE,20,0.0,0.0,95,0.00,CLR,,0.00,WeatherDisplay:10.37,2013-10-12 08:58:00,
2013-10-12 05:03:00,40.4,40.4,30.23,NNE,20,0.0,0.0,100,0.00,CLR,,0.00,WeatherDisplay:10.37,2013-10-12 09:03:00,
2013-10-12 05:08:00,40.3,40.3,30.23,NNE,20,0.0,0.0,100,0.00,CLR,,0.00,WeatherDisplay:10.37,2013-10-12 09:08:00,
2013-10-12 05:13:00,40.4,40.4,30.23,NNE,20,0.0,0.0,100,0.00,CLR,,0.00,WeatherDisplay:10.37,2013-10-12 09:13:00,
2013-10-12 05:18:00,40.1,40.1,30.23,NNE,20,0.0,0.0,100,0.00,CLR,,0.00,WeatherDisplay:10.37,2013-10-12 09:18:00,
2013-10-12 05:23:00,40.2,40.2,30.23,NNE,20,0.0,0.0,100,0.00,CLR,,0.00,WeatherDisplay:10.37,2013-10-12 09:23:00,
2013-10-12 05:28:00,40.1,40.1,30.23,NNE,20,0.0,0.0,100,0.00,CLR,,0.00,WeatherDisplay:10.37,2013-10-12 09:28:00,
2013-10-12 05:34:00,40.2,40.2,30.23,NNE,20,0.0,0.0,100,0.00,CLR,,0.00,WeatherDisplay:10.37,2013-10-12 09:34:00,
2013-10-12 05:39:00,40.0,40.0,30.23,NNE,20,0.0,0.0,100,0.00,CLR,,0.00,WeatherDisplay:10.37,2013-10-12 09:39:00,
2013-10-12 05:44:00,39.8,39.8,30.23,NNE,20,0.0,0.0,100,0.00,CLR,,0.00,WeatherDisplay:10.37,2013-10-12 09:44:00,
2013-10-12 05:49:00,39.5,39.5,30.23,NNE,20,0.0,0.0,100,0.00,CLR,,0.00,WeatherDisplay:10.37,2013-10-12 09:49:00,
2013-10-12 05:54:00,39.4,39.4,30.23,NNE,20,0.0,0.0,100,0.00,CLR,,0.00,WeatherDisplay:10.37,2013-10-12 09:54:00,
2013-10-12 05:59:00,39.7,39.7,30.23,NNE,20,0.0,0.0,100,0.00,CLR,,0.00,WeatherDisplay:10.37,2013-10-12 09:59:00,
2013-10-12 06:04:00,39.8,39.8,30.23,NNE,20,0.0,0.0,100,0.00,CLR,,0.00,WeatherDisplay:10.37,2013-10-12 10:04:00,
2013-10-12 06:09:00,39.7,39.7,30.23,NNE,20,0.0,0.0,100,0.00,CLR,,0.00,WeatherDisplay:10.37,2013-10-12 10:09:00,
2013-10-12 06:14:00,39.8,38.5,30.25,NNE,20,0.0,0.0,95,0.00,CLR,,0.00,WeatherDisplay:10.37,2013-10-12 10:14:00,
2013-10-12 06:19:00,39.8,38.5,30.25,NNE,20,0.0,0.0,95,0.00,CLR,,0.00,WeatherDisplay:10.37,2013-10-12 10:19:00,
2013-10-12 06:24:00,39.6,38.3,30.25,NNE,20,0.0,0.0,95,0.00,CLR,,0.00,WeatherDisplay:10.37,2013-10-12 10:24:00,
2013-10-12 06:29:00,39.8,38.5,30.25,NNE,20,0.0,0.0,95,0.00,CLR,,0.00,WeatherDisplay:10.37,2013-10-12 10:29:00,
2013-10-12 06:34:00,39.9,38.6,30.25,NNE,20,0.0,0.0,95,0.00,CLR,,0.00,WeatherDisplay:10.37,2013-10-12 10:34:00,
2013-10-12 06:39:00,39.7,38.4,30.25,NNE,20,0.0,0.0,95,0.00,CLR,,0.00,WeatherDisplay:10.37,2013-10-12 10:39:00,
2013-10-12 06:44:00,39.4,38.1,30.25,NNE,20,0.0,0.0,95,0.00,CLR,,0.00,WeatherDisplay:10.37,2013-10-12 10:44:00,
2013-10-12 06:49:00,39.6,38.3,30.25,NNE,20,0.0,0.0,95,0.00,CLR,,0.00,WeatherDisplay:10.37,2013-10-12 10:49:00,
2013-10-12 06:54:00,39.9,38.6,30.25,NNE,20,0.0,0.0,95,0.00,CLR,,0.00,WeatherDisplay:10.37,2013-10-12 10:54:00,
2013-10-12 06:59:00,39.5,38.2,30.25,NNE,20,0.0,0.0,95,0.00,CLR,,0.00,WeatherDisplay:10.37,2013-10-12 10:59:00,
2013-10-12 07:04:00,39.6,39.6,30.27,NNE,20,0.0,0.0,100,0.00,CLR,,0.00,WeatherDisplay:10.37,2013-10-12 11:04:00,
2013-10-12 07:09:00,40.0,40.0,30.27,NNE,20,0.0,0.0,100,0.00,CLR,,0.00,WeatherDisplay:10.37,2013-10-12 11:09:00,
2013-10-12 07:14:00,40.4,40.4,30.27,NNE,20,0.0,0.0,100,0.00,CLR,,0.00,WeatherDisplay:10.37,2013-10-12 11:14:00,
2013-10-12 07:19:00,40.3,40.3,30.27,NNE,20,0.0,0.0,100,0.00,CLR,,0.00,WeatherDisplay:10.37,2013-10-12 11:19:00,
2013-10-12 07:24:00,40.4,40.4,30.27,NNE,20,0.0,0.0,100,0.00,CLR,,0.00,WeatherDisplay:10.37,2013-10-12 11:24:00,
2013-10-12 07:29:00,40.5,40.5,30.27,NNE,20,0.0,0.0,100,0.00,CLR,,0.00,WeatherDisplay:10.37,2013-10-12 11:29:00,
2013-10-12 07:34:00,40.8,40.8,30.27,NNE,20,0.0,0.0,100,0.00,CLR,,0.00,WeatherDisplay:10.37,2013-10-12 11:34:00,
2013-10-12 07:39:00,40.9,40.9,30.27,NNE,20,0.0,0.0,100,0.00,CLR,,0.00,WeatherDisplay:10.37,2013-10-12 11:39:00,
2013-10-12 07:44:00,41.2,41.2,30.27,NNE,20,0.0,0.0,100,0.00,CLR,,0.00,WeatherDisplay:10.37,2013-10-12 11:44:00,
2013-10-12 07:49:00,41.2,41.2,30.27,NNE,20,0.0,0.0,100,0.00,CLR,,0.00,WeatherDisplay:10.37,2013-10-12 11:49:00,
2013-10-12 07:54:00,41.7,41.7,30.29,NNE,20,1.1,1.1,100,0.00,BKN,,0.00,WeatherDisplay:10.37,2013-10-12 11:54:00,
2013-10-12 07:59:00,41.6,41.6,30.29,NNE,20,0.0,0.0,100,0.00,BKN,,0.00,WeatherDisplay:10.37,2013-10-12 11:59:00,
2013-10-12 08:04:00,41.9,41.9,30.30,NNE,20,0.0,0.0,100,0.00,OVC,,0.00,WeatherDisplay:10.37,2013-10-12 12:04:00,
2013-10-12 08:09:00,42.6,42.6,30.30,NNE,20,0.0,0.0,100,0.00,OVC,,0.00,WeatherDisplay:10.37,2013-10-12 12:09:00,
2013-10-12 08:14:00,44.0,44.0,30.30,NNE,20,2.3,2.3,100,0.00,OVC,,0.00,WeatherDisplay:10.37,2013-10-12 12:14:00,
2013-10-12 08:19:00,45.6,45.6,30.30,NNE,20,3.5,3.5,100,0.00,OVC,,0.00,WeatherDisplay:10.37,2013-10-12 12:19:00,
2013-10-12 08:24:00,46.1,46.1,30.30,NNE,20,3.5,3.5,100,0.00,OVC,,0.00,WeatherDisplay:10.37,2013-10-12 12:24:00,
2013-10-12 08:29:00,46.9,46.9,30.30,NNE,20,2.3,2.3,100,0.00,OVC,,0.00,WeatherDisplay:10.37,2013-10-12 12:29:00,
2013-10-12 08:34:00,49.6,49.6,30.30,NE,44,3.5,3.5,100,0.00,OVC,,0.00,WeatherDisplay:10.37,2013-10-12 12:34:00,
2013-10-12 08:39:00,49.7,49.7,30.30,NE,44,1.1,1.1,100,0.00,OVC,,0.00,WeatherDisplay:10.37,2013-10-12 12:39:00,
2013-10-12 08:44:00,49.7,49.7,30.30,NE,52,3.0,3.0,100,0.00,OVC,,0.00,WeatherDisplay:10.37,2013-10-12 12:44:00,
2013-10-12 08:49:00,50.0,50.0,30.30,NE,53,1.1,1.1,100,0.00,OVC,,0.00,WeatherDisplay:10.37,2013-10-12 12:49:00,
2013-10-12 08:54:00,50.1,48.2,30.32,NE,54,3.5,3.5,93,0.00,OVC,,0.00,WeatherDisplay:10.37,2013-10-12 12:54:00,
2013-10-12 08:59:00,50.3,48.4,30.32,NE,54,2.3,2.3,93,0.00,OVC,,0.00,WeatherDisplay:10.37,2013-10-12 12:59:00,
2013-10-12 09:04:00,50.4,48.5,30.32,NE,54,2.3,2.3,93,0.00,OVC,,0.00,WeatherDisplay:10.37,2013-10-12 13:04:00,
2013-10-12 09:09:00,50.5,48.6,30.32,NE,54,1.1,1.1,93,0.00,OVC,,0.00,WeatherDisplay:10.37,2013-10-12 13:09:00,
2013-10-12 09:14:00,50.6,49.5,30.32,NE,54,2.3,2.3,96,0.00,OVC,,0.00,WeatherDisplay:10.37,2013-10-12 13:14:00,
2013-10-12 09:19:00,50.6,49.5,30.32,NE,54,3.5,3.5,96,0.00,OVC,,0.00,WeatherDisplay:10.37,2013-10-12 13:19:00,
2013-10-12 09:24:00,50.8,49.7,30.32,NE,54,3.5,3.5,96,0.00,OVC,,0.00,WeatherDisplay:10.37,2013-10-12 13:24:00,
2013-10-12 09:29:00,51.1,50.0,30.32,NE,54,3.5,3.5,96,0.00,OVC,,0.00,WeatherDisplay:10.37,2013-10-12 13:29:00,
2013-10-12 09:34:00,51.2,50.1,30.32,NE,54,3.5,3.5,96,0.00,OVC,,0.00,WeatherDisplay:10.37,2013-10-12 13:34:00,
2013-10-12 09:39:00,51.3,50.2,30.32,NE,55,4.6,4.6,96,0.00,OVC,,0.00,WeatherDisplay:10.37,2013-10-12 13:39:00,
2013-10-12 09:44:00,51.5,50.4,30.32,NE,55,3.5,3.5,96,0.00,OVC,,0.00,WeatherDisplay:10.37,2013-10-12 13:44:00,
2013-10-12 09:49:00,51.4,50.3,30.32,NE,55,2.3,2.3,96,0.00,OVC,,0.00,WeatherDisplay:10.37,2013-10-12 13:49:00,
2013-10-12 09:54:00,51.2,49.2,30.33,NE,55,3.5,3.5,93,0.00,OVC,,0.00,WeatherDisplay:10.37,2013-10-12 13:54:00,
2013-10-12 09:59:00,51.3,49.3,30.33,NE,54,3.5,3.5,93,0.00,OVC,,0.00,WeatherDisplay:10.37,2013-10-12 13:59:00,
2013-10-12 10:04:00,51.4,49.4,30.33,NE,54,4.0,4.0,93,0.00,OVC,,0.00,WeatherDisplay:10.37,2013-10-12 14:04:00,
2013-10-12 10:09:00,51.5,49.5,30.33,ENE,61,3.5,3.5,93,0.00,OVC,,0.00,WeatherDisplay:10.37,2013-10-12 14:09:00,
2013-10-12 10:14:00,51.5,49.3,30.33,ENE,62,1.1,1.1,92,0.00,OVC,,0.00,WeatherDisplay:10.37,2013-10-12 14:14:00,
2013-10-12 10:19:00,51.5,49.3,30.33,ENE,62,2.3,2.3,92,0.00,OVC,,0.00,WeatherDisplay:10.37,2013-10-12 14:19:00,
2013-10-12 10:24:00,51.6,49.4,30.33,ENE,62,2.3,2.3,92,0.00,OVC,,0.00,WeatherDisplay:10.37,2013-10-12 14:24:00,
2013-10-12 10:29:00,51.6,49.4,30.33,ENE,60,3.5,3.5,92,0.00,OVC,,0.00,WeatherDisplay:10.37,2013-10-12 14:29:00,
2013-10-12 10:34:00,51.6,49.4,30.33,NE,50,4.6,4.6,92,0.00,OVC,,0.00,WeatherDisplay:10.37,2013-10-12 14:34:00,
2013-10-12 10:39:00,51.6,49.4,30.33,NE,50,3.5,3.5,92,0.00,OVC,,0.00,WeatherDisplay:10.37,2013-10-12 14:39:00,
2013-10-12 10:44:00,51.4,49.2,30.33,NE,51,3.5,3.5,92,0.00,OVC,,0.00,WeatherDisplay:10.37,2013-10-12 14:44:00,
2013-10-12 10:49:00,51.5,49.3,30.33,NE,52,3.5,3.5,92,0.00,OVC,,0.00,WeatherDisplay:10.37,2013-10-12 14:49:00,
2013-10-12 10:54:00,51.5,49.3,30.33,NE,52,2.3,2.3,92,0.00,OVC,,0.00,WeatherDisplay:10.37,2013-10-12 14:54:00,
2013-10-12 10:59:00,51.5,49.3,30.33,NE,56,4.6,4.6,92,0.00,OVC,,0.00,WeatherDisplay:10.37,2013-10-12 14:59:00,
2013-10-12 11:04:00,51.5,49.3,30.35,NE,56,3.5,3.5,92,0.00,OVC,,0.00,WeatherDisplay:10.37,2013-10-12 15:04:00,
2013-10-12 11:09:00,51.5,49.3,30.35,NE,56,3.5,3.5,92,0.00,OVC,,0.00,WeatherDisplay:10.37,2013-10-12 15:09:00,
2013-10-12 11:14:00,51.5,49.3,30.35,NE,56,3.5,3.5,92,0.00,OVC,,0.00,WeatherDisplay:10.37,2013-10-12 15:14:00,
2013-10-12 11:19:00,51.5,49.3,30.35,NE,56,3.5,3.5,92,0.00,OVC,,0.00,WeatherDisplay:10.37,2013-10-12 15:19:00,
2013-10-12 11:24:00,51.6,49.4,30.35,NE,56,3.5,3.5,92,0.00,OVC,,0.00,WeatherDisplay:10.37,2013-10-12 15:24:00,
2013-10-12 11:29:00,51.5,49.3,30.35,NE,56,3.5,3.5,92,0.00,OVC,,0.00,WeatherDisplay:10.37,2013-10-12 15:29:00,
2013-10-12 11:34:00,51.5,49.3,30.35,NE,56,3.5,3.5,92,0.00,OVC,,0.00,WeatherDisplay:10.37,2013-10-12 15:34:00,
2013-10-12 11:39:00,51.7,49.5,30.35,NE,56,4.6,4.6,92,0.00,OVC,,0.00,WeatherDisplay:10.37,2013-10-12 15:39:00,
2013-10-12 11:44:00,51.8,49.5,30.35,NE,56,3.5,3.5,92,0.00,OVC,,0.00,WeatherDisplay:10.37,2013-10-12 15:44:00,
2013-10-12 11:49:00,51.8,49.5,30.35,NE,56,3.5,3.5,92,0.00,OVC,,0.00,WeatherDisplay:10.37,2013-10-12 15:49:00,
2013-10-12 11:54:00,51.9,49.6,30.35,NE,56,1.1,0.0,92,0.00,OVC,,0.00,WeatherDisplay:10.37,2013-10-12 15:54:00,
2013-10-12 11:59:00,52.1,49.8,30.35,NE,56,2.3,2.3,92,0.00,OVC,,0.00,WeatherDisplay:10.37,2013-10-12 15:59:00,
2013-10-12 12:04:00,52.0,49.7,30.35,NE,56,1.0,1.0,92,0.00,OVC,,0.00,WeatherDisplay:10.37,2013-10-12 16:04:00,
2013-10-12 12:09:00,52.1,49.8,30.35,NE,56,1.1,1.1,92,0.00,OVC,,0.00,WeatherDisplay:10.37,2013-10-12 16:09:00,
2013-10-12 12:14:00,52.1,49.8,30.35,NE,56,2.3,2.3,92,0.00,OVC,,0.00,WeatherDisplay:10.37,2013-10-12 16:14:00,
2013-10-12 12:19:00,52.2,49.9,30.35,NE,56,2.3,2.3,92,0.00,OVC,,0.00,WeatherDisplay:10.37,2013-10-12 16:19:00,
2013-10-12 12:24:00,52.3,48.5,30.36,NE,56,2.3,2.3,87,0.00,OVC,,0.00,WeatherDisplay:10.37,2013-10-12 16:24:00,
2013-10-12 12:29:00,52.2,48.4,30.36,NE,56,1.1,1.1,87,0.00,OVC,,0.00,WeatherDisplay:10.37,2013-10-12 16:29:00,
2013-10-12 12:34:00,52.3,48.5,30.36,NE,54,2.3,2.3,87,0.00,OVC,,0.00,WeatherDisplay:10.37,2013-10-12 16:34:00,
2013-10-12 12:39:00,52.3,48.5,30.36,NE,53,2.3,2.3,87,0.00,OVC,,0.00,WeatherDisplay:10.37,2013-10-12 16:39:00,
2013-10-12 12:44:00,52.4,48.6,30.36,NE,53,2.3,2.3,87,0.00,OVC,,0.00,WeatherDisplay:10.37,2013-10-12 16:44:00,
2013-10-12 12:49:00,52.4,48.6,30.36,NE,53,3.5,3.5,87,0.00,OVC,,0.00,WeatherDisplay:10.37,2013-10-12 16:49:00,
2013-10-12 12:54:00,52.4,48.6,30.36,NE,52,2.0,2.0,87,0.00,OVC,,0.00,WeatherDisplay:10.37,2013-10-12 16:54:00,
2013-10-12 12:59:00,52.3,48.5,30.36,NE,52,2.3,2.3,87,0.00,OVC,,0.00,WeatherDisplay:10.37,2013-10-12 16:59:00,
2013-10-12 13:04:00,52.4,49.3,30.35,NE,52,2.3,2.3,89,0.00,OVC,,0.00,WeatherDisplay:10.37,2013-10-12 17:04:00,
2013-10-12 13:09:00,52.4,49.3,30.35,NE,52,1.1,1.1,89,0.00,OVC,,0.00,WeatherDisplay:10.37,2013-10-12 17:09:00,
2013-10-12 13:14:00,52.3,49.2,30.35,NE,52,3.5,3.5,89,0.00,OVC,,0.00,WeatherDisplay:10.37,2013-10-12 17:14:00,
2013-10-12 13:19:00,52.3,49.2,30.35,NE,52,1.1,1.1,89,0.00,OVC,,0.00,WeatherDisplay:10.37,2013-10-12 17:19:00,
2013-10-12 13:24:00,52.1,49.0,30.35,NE,48,2.3,2.3,89,0.00,OVC,,0.00,WeatherDisplay:10.37,2013-10-12 17:24:00,
2013-10-12 13:29:00,52.2,49.1,30.35,NE,48,1.1,0.0,89,0.00,OVC,,0.00,WeatherDisplay:10.37,2013-10-12 17:29:00,
2013-10-12 13:34:00,51.9,48.8,30.35,NE,37,3.5,3.5,89,0.00,OVC,,0.00,WeatherDisplay:10.37,2013-10-12 17:34:00,
2013-10-12 13:39:00,51.9,48.8,30.35,NNE,31,2.0,2.0,89,0.00,OVC,,0.00,WeatherDisplay:10.37,2013-10-12 17:39:00,
2013-10-12 13:44:00,51.6,48.5,30.35,NNE,31,1.1,1.1,89,0.00,OVC,,0.00,WeatherDisplay:10.37,2013-10-12 17:44:00,
2013-10-12 13:49:00,51.7,48.6,30.35,NNE,30,0.0,0.0,89,0.00,OVC,,0.00,WeatherDisplay:10.37,2013-10-12 17:49:00,
2013-10-12 13:54:00,51.7,48.6,30.35,NNE,30,0.0,0.0,89,0.00,OVC,,0.00,WeatherDisplay:10.37,2013-10-12 17:54:00,
2013-10-12 13:59:00,51.6,48.5,30.35,NNE,31,3.5,3.5,89,0.00,OVC,,0.00,WeatherDisplay:10.37,2013-10-12 17:59:00,
2013-10-12 14:04:00,51.8,48.7,30.35,NNE,31,2.3,2.3,89,0.00,OVC,,0.00,WeatherDisplay:10.37,2013-10-12 18:04:00,
2013-10-12 14:09:00,51.6,48.5,30.35,NNE,31,3.5,3.5,89,0.00,OVC,,0.00,WeatherDisplay:10.37,2013-10-12 18:09:00,
2013-10-12 14:14:00,51.8,47.7,30.35,NNE,31,3.5,3.5,86,0.00,OVC,,0.00,WeatherDisplay:10.37,2013-10-12 18:14:00,
2013-10-12 14:19:00,51.8,47.7,30.35,NE,35,3.5,3.5,86,0.00,OVC,,0.00,WeatherDisplay:10.37,2013-10-12 18:19:00,
2013-10-12 14:24:00,51.8,47.7,30.35,NE,38,3.5,3.5,86,0.00,OVC,,0.00,WeatherDisplay:10.37,2013-10-12 18:24:00,
2013-10-12 14:29:00,51.8,47.7,30.35,NE,42,0.0,0.0,86,0.00,OVC,,0.00,WeatherDisplay:10.37,2013-10-12 18:29:00,
2013-10-12 14:34:00,51.8,47.7,30.35,NE,41,1.1,1.1,86,0.00,OVC,,0.00,WeatherDisplay:10.37,2013-10-12 18:34:00,
2013-10-12 14:39:00,51.8,47.7,30.35,NE,41,1.1,1.1,86,0.00,OVC,,0.00,WeatherDisplay:10.37,2013-10-12 18:39:00,
2013-10-12 14:44:00,52.0,47.9,30.35,NE,41,3.0,3.0,86,0.00,OVC,,0.00,WeatherDisplay:10.37,2013-10-12 18:44:00,
2013-10-12 14:49:00,51.9,47.8,30.35,NE,41,3.0,3.0,86,0.00,OVC,,0.00,WeatherDisplay:10.37,2013-10-12 18:49:00,
2013-10-12 14:54:00,51.8,47.7,30.35,NE,41,3.5,3.5,86,0.00,OVC,,0.00,WeatherDisplay:10.37,2013-10-12 18:54:00,
2013-10-12 14:59:00,51.9,47.8,30.35,NE,42,2.3,2.3,86,0.00,OVC,,0.00,WeatherDisplay:10.37,2013-10-12 18:59:00,
2013-10-12 15:04:00,51.9,47.8,30.35,NE,42,3.5,3.5,86,0.00,OVC,,0.00,WeatherDisplay:10.37,2013-10-12 19:04:00,
2013-10-12 15:09:00,51.9,47.8,30.35,NE,42,2.3,2.3,86,0.00,OVC,,0.00,WeatherDisplay:10.37,2013-10-12 19:09:00,
2013-10-12 15:14:00,51.9,47.8,30.36,NE,42,3.0,3.0,86,0.00,OVC,,0.00,WeatherDisplay:10.37,2013-10-12 19:14:00,
2013-10-12 15:19:00,52.0,47.9,30.36,NE,42,1.1,1.1,86,0.00,OVC,,0.00,WeatherDisplay:10.37,2013-10-12 19:19:00,
2013-10-12 15:24:00,52.0,47.9,30.36,NE,41,1.1,1.1,86,0.00,OVC,,0.00,WeatherDisplay:10.37,2013-10-12 19:24:00,
2013-10-12 15:29:00,51.8,47.7,30.36,NE,41,3.5,3.5,86,0.00,OVC,,0.00,WeatherDisplay:10.37,2013-10-12 19:29:00,
2013-10-12 15:34:00,51.7,47.6,30.36,NE,41,3.5,3.5,86,0.00,OVC,,0.00,WeatherDisplay:10.37,2013-10-12 19:34:00,
2013-10-12 15:39:00,51.7,47.6,30.36,NE,41,2.3,2.3,86,0.00,OVC,,0.00,WeatherDisplay:10.37,2013-10-12 19:39:00,
2013-10-12 15:44:00,51.8,47.7,30.36,NE,41,2.3,2.3,86,0.00,OVC,,0.00,WeatherDisplay:10.37,2013-10-12 19:44:00,
2013-10-12 15:49:00,51.8,47.7,30.36,NE,41,2.3,0.0,86,0.00,OVC,,0.00,WeatherDisplay:10.37,2013-10-12 19:49:00,
2013-10-12 15:54:00,51.8,47.7,30.36,NE,41,1.1,1.1,86,0.00,OVC,,0.00,WeatherDisplay:10.37,2013-10-12 19:54:00,
2013-10-12 15:59:00,51.9,47.8,30.36,NE,41,1.1,1.1,86,0.00,OVC,,0.00,WeatherDisplay:10.37,2013-10-12 19:59:00,
2013-10-12 16:04:00,51.6,47.5,30.37,NE,41,1.1,1.1,86,0.00,OVC,,0.00,WeatherDisplay:10.37,2013-10-12 20:04:00,
2013-10-12 16:09:00,51.4,47.4,30.37,NE,41,2.0,2.0,86,0.00,OVC,,0.00,WeatherDisplay:10.37,2013-10-12 20:09:00,
2013-10-12 16:14:00,51.4,47.4,30.37,NE,41,2.3,2.3,86,0.00,OVC,,0.00,WeatherDisplay:10.37,2013-10-12 20:14:00,
2013-10-12 16:19:00,51.5,47.5,30.37,NE,41,0.0,0.0,86,0.00,OVC,,0.00,WeatherDisplay:10.37,2013-10-12 20:19:00,
2013-10-12 16:24:00,51.1,47.1,30.37,NE,41,2.3,2.3,86,0.00,OVC,,0.00,WeatherDisplay:10.37,2013-10-12 20:24:00,
2013-10-12 16:29:00,50.8,46.8,30.37,NE,41,1.1,1.1,86,0.00,OVC,,0.00,WeatherDisplay:10.37,2013-10-12 20:29:00,
2013-10-12 16:34:00,50.8,46.8,30.37,NE,41,1.1,0.0,86,0.00,OVC,,0.00,WeatherDisplay:10.37,2013-10-12 20:34:00,
2013-10-12 16:39:00,50.8,46.8,30.37,NE,41,1.1,0.0,86,0.00,OVC,,0.00,WeatherDisplay:10.37,2013-10-12 20:39:00,
2013-10-12 16:44:00,50.7,45.1,30.37,NE,41,0.0,0.0,81,0.00,OVC,,0.00,WeatherDisplay:10.37,2013-10-12 20:44:00,
2013-10-12 16:49:00,50.8,45.2,30.37,NE,41,0.0,0.0,81,0.00,OVC,,0.00,WeatherDisplay:10.37,2013-10-12 20:49:00,
2013-10-12 16:54:00,50.6,45.0,30.37,NE,41,1.0,1.0,81,0.00,OVC,,0.00,WeatherDisplay:10.37,2013-10-12 20:54:00,
2013-10-12 16:59:00,50.7,45.1,30.37,NE,41,1.1,1.1,81,0.00,OVC,,0.00,WeatherDisplay:10.37,2013-10-12 20:59:00,
2013-10-12 17:04:00,50.6,45.0,30.37,NE,41,0.0,0.0,81,0.00,OVC,,0.00,WeatherDisplay:10.37,2013-10-12 21:04:00,
2013-10-12 17:09:00,50.6,45.0,30.37,NE,41,0.0,0.0,81,0.00,OVC,,0.00,WeatherDisplay:10.37,2013-10-12 21:09:00,
2013-10-12 17:14:00,50.5,44.9,30.37,NE,41,1.1,0.0,81,0.00,OVC,,0.00,WeatherDisplay:10.37,2013-10-12 21:14:00,
2013-10-12 17:19:00,50.6,45.0,30.37,NE,41,0.0,0.0,81,0.00,OVC,,0.00,WeatherDisplay:10.37,2013-10-12 21:19:00,
2013-10-12 17:24:00,50.6,45.3,30.37,NE,41,0.0,0.0,82,0.00,OVC,,0.00,WeatherDisplay:10.37,2013-10-12 21:24:00,
2013-10-12 17:29:00,50.5,45.2,30.37,NE,41,0.0,0.0,82,0.00,OVC,,0.00,WeatherDisplay:10.37,2013-10-12 21:29:00,
2013-10-12 17:34:00,50.4,45.1,30.37,NE,41,0.0,0.0,82,0.00,OVC,,0.00,WeatherDisplay:10.37,2013-10-12 21:34:00,
2013-10-12 17:39:00,50.4,45.1,30.37,NE,41,0.0,0.0,82,0.00,OVC,,0.00,WeatherDisplay:10.37,2013-10-12 21:39:00,
2013-10-12 17:44:00,50.5,45.2,30.37,NE,41,0.0,0.0,82,0.00,OVC,,0.00,WeatherDisplay:10.37,2013-10-12 21:44:00,
2013-10-12 17:49:00,50.4,45.1,30.37,NE,41,1.1,0.0,82,0.00,OVC,,0.00,WeatherDisplay:10.37,2013-10-12 21:49:00,
2013-10-12 17:54:00,50.5,45.2,30.37,NE,41,0.0,0.0,82,0.00,OVC,,0.00,WeatherDisplay:10.37,2013-10-12 21:54:00,
2013-10-12 17:59:00,50.4,45.1,30.37,NE,41,0.0,0.0,82,0.00,OVC,,0.00,WeatherDisplay:10.37,2013-10-12 21:59:00,
2013-10-12 18:04:00,50.4,46.1,30.38,NE,41,1.1,1.1,85,0.00,OVC,,0.00,WeatherDisplay:10.37,2013-10-12 22:04:00,
2013-10-12 18:09:00,50.5,46.2,30.38,NE,41,0.0,0.0,85,0.00,OVC,,0.00,WeatherDisplay:10.37,2013-10-12 22:09:00,
2013-10-12 18:14:00,50.4,46.1,30.38,NE,41,1.1,1.1,85,0.00,OVC,,0.00,WeatherDisplay:10.37,2013-10-12 22:14:00,
2013-10-12 18:19:00,50.5,46.2,30.38,NE,41,1.1,1.1,85,0.00,OVC,,0.00,WeatherDisplay:10.37,2013-10-12 22:19:00,
2013-10-12 18:24:00,50.6,46.3,30.38,NE,41,1.1,1.1,85,0.00,OVC,,0.00,WeatherDisplay:10.37,2013-10-12 22:24:00,
2013-10-12 18:29:00,50.6,46.3,30.38,NE,41,1.1,0.0,85,0.00,OVC,,0.00,WeatherDisplay:10.37,2013-10-12 22:29:00,
2013-10-12 18:34:00,50.5,46.2,30.38,NE,41,1.1,0.0,85,0.00,OVC,,0.00,WeatherDisplay:10.37,2013-10-12 22:34:00,
2013-10-12 18:39:00,50.5,46.2,30.38,NE,41,0.0,0.0,85,0.00,OVC,,0.00,WeatherDisplay:10.37,2013-10-12 22:39:00,
2013-10-12 18:44:00,50.4,46.1,30.38,NE,41,0.0,0.0,85,0.00,OVC,,0.00,WeatherDisplay:10.37,2013-10-12 22:44:00,
2013-10-12 18:49:00,50.4,46.1,30.38,NE,41,0.0,0.0,85,0.00,OVC,,0.00,WeatherDisplay:10.37,2013-10-12 22:49:00,
2013-10-12 18:54:00,50.5,46.2,30.38,NE,41,1.1,0.0,85,0.00,OVC,,0.00,WeatherDisplay:10.37,2013-10-12 22:54:00,
2013-10-12 18:59:00,50.4,46.1,30.38,NE,41,1.1,1.1,85,0.00,OVC,,0.00,WeatherDisplay:10.37,2013-10-12 22:59:00,
2013-10-12 19:04:00,50.4,48.2,30.39,NE,41,2.0,2.0,92,0.00,OVC,,0.00,WeatherDisplay:10.37,2013-10-12 23:04:00,
2013-10-12 19:09:00,50.3,48.1,30.39,NE,41,2.3,2.3,92,0.00,OVC,,0.00,WeatherDisplay:10.37,2013-10-12 23:09:00,
2013-10-12 19:14:00,50.4,48.2,30.39,NE,41,2.3,2.3,92,0.00,OVC,,0.00,WeatherDisplay:10.37,2013-10-12 23:14:00,
2013-10-12 19:19:00,50.3,48.1,30.39,NE,41,2.3,2.3,92,0.00,OVC,,0.00,WeatherDisplay:10.37,2013-10-12 23:19:00,
2013-10-12 19:24:00,50.3,48.1,30.39,NE,41,0.0,0.0,92,0.00,OVC,,0.00,WeatherDisplay:10.37,2013-10-12 23:24:00,
2013-10-12 19:29:00,50.5,48.3,30.39,NE,41,1.1,1.1,92,0.00,OVC,,0.00,WeatherDisplay:10.37,2013-10-12 23:29:00,
2013-10-12 19:34:00,50.4,48.2,30.39,NE,41,1.1,1.1,92,0.00,OVC,,0.00,WeatherDisplay:10.37,2013-10-12 23:34:00,
2013-10-12 19:39:00,50.5,48.3,30.39,NE,41,0.0,0.0,92,0.00,OVC,,0.00,WeatherDisplay:10.37,2013-10-12 23:39:00,
2013-10-12 19:44:00,50.5,48.3,30.39,NE,41,0.0,0.0,92,0.00,OVC,,0.00,WeatherDisplay:10.37,2013-10-12 23:44:00,
2013-10-12 19:49:00,50.3,48.1,30.39,NE,41,1.1,0.0,92,0.00,OVC,,0.00,WeatherDisplay:10.37,2013-10-12 23:49:00,
2013-10-12 19:54:00,50.4,48.2,30.39,NE,41,1.1,0.0,92,0.00,OVC,,0.00,WeatherDisplay:10.37,2013-10-12 23:54:00,
2013-10-12 19:59:00,50.3,48.1,30.39,NE,41,0.0,0.0,92,0.00,OVC,,0.00,WeatherDisplay:10.37,2013-10-12 23:59:00,
2013-10-12 20:04:00,50.2,47.1,30.40,NE,41,0.0,0.0,89,0.00,OVC,,0.00,WeatherDisplay:10.37,2013-10-13 00:04:00,
2013-10-12 20:09:00,50.2,47.1,30.40,NE,41,0.0,0.0,89,0.00,OVC,,0.00,WeatherDisplay:10.37,2013-10-13 00:09:00,
2013-10-12 20:14:00,50.2,47.1,30.40,NE,41,1.1,1.1,89,0.00,OVC,,0.00,WeatherDisplay:10.37,2013-10-13 00:14:00,
2013-10-12 20:19:00,50.2,47.1,30.40,NE,41,0.0,0.0,89,0.00,OVC,,0.00,WeatherDisplay:10.37,2013-10-13 00:19:00,
2013-10-12 20:24:00,50.1,47.0,30.40,NE,41,0.0,0.0,89,0.00,OVC,,0.00,WeatherDisplay:10.37,2013-10-13 00:24:00,
2013-10-12 20:29:00,50.0,46.9,30.40,NE,41,0.0,0.0,89,0.00,OVC,,0.00,WeatherDisplay:10.37,2013-10-13 00:29:00,
2013-10-12 20:34:00,49.9,46.8,30.40,NE,41,0.0,0.0,89,0.00,OVC,,0.00,WeatherDisplay:10.37,2013-10-13 00:34:00,
2013-10-12 20:39:00,50.0,46.9,30.40,NE,41,0.0,0.0,89,0.00,OVC,,0.00,WeatherDisplay:10.37,2013-10-13 00:39:00,
2013-10-12 20:44:00,49.9,46.8,30.40,NE,41,0.0,0.0,89,0.00,OVC,,0.00,WeatherDisplay:10.37,2013-10-13 00:44:00,
2013-10-12 20:49:00,49.9,46.8,30.40,NE,41,1.1,0.0,89,0.00,OVC,,0.00,WeatherDisplay:10.37,2013-10-13 00:49:00,
2013-10-12 20:54:00,49.9,46.8,30.40,NE,41,1.1,0.0,89,0.00,OVC,,0.00,WeatherDisplay:10.37,2013-10-13 00:54:00,
2013-10-12 20:59:00,49.9,46.8,30.40,NE,41,0.0,0.1,89,0.00,OVC,,0.00,WeatherDisplay:10.37,2013-10-13 00:59:00,
2013-10-12 21:04:00,49.9,45.9,30.41,NE,41,1.1,0.0,86,0.00,OVC,,0.00,WeatherDisplay:10.37,2013-10-13 01:04:00,
2013-10-12 21:09:00,49.9,45.9,30.41,NE,41,0.0,0.2,86,0.00,OVC,,0.00,WeatherDisplay:10.37,2013-10-13 01:09:00,
2013-10-12 21:14:00,49.8,45.8,30.41,NE,41,0.0,0.0,86,0.00,OVC,,0.00,WeatherDisplay:10.37,2013-10-13 01:14:00,
2013-10-12 21:19:00,49.7,45.7,30.41,NE,41,0.0,0.0,86,0.00,OVC,,0.00,WeatherDisplay:10.37,2013-10-13 01:19:00,
2013-10-12 21:24:00,49.7,45.7,30.41,NE,41,0.0,0.0,86,0.00,OVC,,0.00,WeatherDisplay:10.37,2013-10-13 01:24:00,
2013-10-12 21:29:00,49.6,45.6,30.41,NE,41,0.0,0.0,86,0.00,OVC,,0.00,WeatherDisplay:10.37,2013-10-13 01:29:00,
2013-10-12 21:34:00,49.4,43.8,30.41,NE,41,0.0,0.0,81,0.00,OVC,,0.00,WeatherDisplay:10.37,2013-10-13 01:34:00,
2013-10-12 21:39:00,49.4,43.8,30.41,NE,41,0.0,0.0,81,0.00,OVC,,0.00,WeatherDisplay:10.37,2013-10-13 01:39:00,
2013-10-12 21:44:00,49.5,43.9,30.41,NE,41,0.0,0.0,81,0.00,OVC,,0.00,WeatherDisplay:10.37,2013-10-13 01:44:00,
2013-10-12 21:49:00,49.4,43.8,30.41,NE,41,0.0,0.0,81,0.00,OVC,,0.00,WeatherDisplay:10.37,2013-10-13 01:49:00,
2013-10-12 21:54:00,49.4,43.8,30.41,NE,41,1.1,0.0,81,0.00,OVC,,0.00,WeatherDisplay:10.37,2013-10-13 01:54:00,
2013-10-12 21:58:00,49.4,43.8,30.41,NE,41,0.0,0.0,81,0.00,OVC,,0.00,WeatherDisplay:10.37,2013-10-13 01:58:00,
2013-10-12 22:03:00,49.2,43.9,30.41,NE,41,0.0,0.0,82,0.00,BKN,,0.00,WeatherDisplay:10.37,2013-10-13 02:03:00,
2013-10-12 22:08:00,49.2,43.9,30.41,NE,41,0.0,0.0,82,0.00,BKN,,0.00,WeatherDisplay:10.37,2013-10-13 02:08:00,
2013-10-12 22:13:00,49.2,43.9,30.41,NE,41,0.0,0.0,82,0.00,BKN,,0.00,WeatherDisplay:10.37,2013-10-13 02:13:00,
2013-10-12 22:18:00,48.5,43.3,30.41,NE,41,0.0,0.0,82,0.00,BKN,,0.00,WeatherDisplay:10.37,2013-10-13 02:18:00,
2013-10-12 22:23:00,48.7,46.8,30.41,NE,41,0.0,0.0,93,0.00,SCT,,0.00,WeatherDisplay:10.37,2013-10-13 02:23:00,
2013-10-12 22:28:00,49.0,47.1,30.41,NE,41,0.0,0.0,93,0.00,SCT,,0.00,WeatherDisplay:10.37,2013-10-13 02:28:00,
2013-10-12 22:33:00,48.6,46.7,30.41,NE,41,1.1,0.0,93,0.00,SCT,,0.00,WeatherDisplay:10.37,2013-10-13 02:33:00,
2013-10-12 22:38:00,47.1,45.2,30.41,NE,41,0.0,0.0,93,0.00,SCT,,0.00,WeatherDisplay:10.37,2013-10-13 02:38:00,
2013-10-12 22:43:00,47.2,45.3,30.41,NE,41,0.0,0.0,93,0.00,SCT,,0.00,WeatherDisplay:10.37,2013-10-13 02:43:00,
2013-10-12 22:48:00,47.0,45.1,30.41,NE,41,0.0,0.0,93,0.00,SCT,,0.00,WeatherDisplay:10.37,2013-10-13 02:48:00,
2013-10-12 22:53:00,46.8,44.9,30.41,NE,41,0.0,0.0,93,0.00,SCT,,0.00,WeatherDisplay:10.37,2013-10-13 02:53:00,
2013-10-12 22:58:00,46.6,44.7,30.41,NE,41,0.0,0.0,93,0.00,SCT,,0.00,WeatherDisplay:10.37,2013-10-13 02:58:00,
2013-10-12 23:03:00,46.0,44.1,30.41,NE,41,0.0,0.0,93,0.00,SCT,,0.00,WeatherDisplay:10.37,2013-10-13 03:03:00,
2013-10-12 23:08:00,45.5,43.6,30.41,NE,41,0.0,0.0,93,0.00,SCT,,0.00,WeatherDisplay:10.37,2013-10-13 03:08:00,
2013-10-12 23:13:00,44.9,43.0,30.41,NE,41,0.0,0.0,93,0.00,SCT,,0.00,WeatherDisplay:10.37,2013-10-13 03:13:00,
2013-10-12 23:18:00,45.1,43.2,30.41,NE,41,0.0,0.0,93,0.00,SCT,,0.00,WeatherDisplay:10.37,2013-10-13 03:18:00,
2013-10-12 23:23:00,44.8,42.9,30.42,NE,41,0.0,0.0,93,0.00,BKN,,0.00,WeatherDisplay:10.37,2013-10-13 03:23:00,
2013-10-12 23:28:00,44.4,42.5,30.42,NE,41,0.0,0.0,93,0.00,BKN,,0.00,WeatherDisplay:10.37,2013-10-13 03:28:00,
2013-10-12 23:33:00,44.3,42.4,30.42,NE,41,0.0,0.0,93,0.00,BKN,,0.00,WeatherDisplay:10.37,2013-10-13 03:33:00,
2013-10-12 23:38:00,43.9,42.0,30.42,NE,41,0.0,0.0,93,0.00,BKN,,0.00,WeatherDisplay:10.37,2013-10-13 03:38:00,
2013-10-12 23:43:00,44.1,42.2,30.42,NE,41,0.0,0.0,93,0.00,BKN,,0.00,WeatherDisplay:10.37,2013-10-13 03:43:00,
2013-10-12 23:48:00,44.3,42.4,30.42,NE,41,0.0,0.0,93,0.00,BKN,,0.00,WeatherDisplay:10.37,2013-10-13 03:48:00,
2013-10-12 23:53:00,44.0,42.1,30.42,NE,41,0.0,0.0,93,0.00,BKN,,0.00,WeatherDisplay:10.37,2013-10-13 03:53:00,
2013-10-12 23:58:00,43.7,41.8,30.42,NE,41,0.0,0.0,93,0.00,BKN,,0.00,WeatherDisplay:10.37,2013-10-13 03:58:00,